Location: Unspecified
(34.4950°S, 58.5160°W)
Time: 03:05:56
(UTC+00:00)

JB-3 - Pass Details

Date: 04 December 2021
Orbit: 524 x 588 km, 97.3° (Epoch: 23 January)

Event Time Altitude Azimuth Distance (km) Brightness Sun altitude
Exits shadow 23:47:46 - 17° (NNE) 1,900 6.6 -10.1°
Reaches altitude 10° 23:48:04 10° 17° (NNE) 1,771 6.4 -10.1°
Maximum altitude 23:51:53 76° 103° (ESE) 556 4.2 -10.7°
Drops below altitude 10° 23:55:48 10° 188° (S) 1,816 7.7 -11.4°
Sets 23:57:57 0° 189° (S) 2,725 8.6 -11.7°
